TimeCST,TemperatureF,Dew PointF,Humidity,Sea Level PressureIn,VisibilityMPH,Wind Direction,Wind SpeedMPH,Gust SpeedMPH,PrecipitationIn,Events,Conditions,WindDirDegrees,DateUTC
12:53 AM,42.1,36.0,79,30.09,8.0,NNW,4.6,-,N/A,,Clear,330,2012-11-20 06:53:00
1:53 AM,41.0,36.0,82,30.10,7.0,NNW,8.1,-,N/A,,Clear,340,2012-11-20 07:53:00
2:53 AM,41.0,36.0,82,30.12,7.0,NNW,10.4,-,N/A,,Clear,340,2012-11-20 08:53:00
3:53 AM,39.0,35.1,86,30.13,7.0,North,10.4,-,N/A,,Clear,360,2012-11-20 09:53:00
4:53 AM,36.0,33.1,89,30.17,6.0,NW,9.2,-,N/A,,Clear,320,2012-11-20 10:53:00
5:53 AM,35.1,32.0,89,30.16,7.0,Calm,Calm,-,N/A,,Clear,0,2012-11-20 11:53:00
6:53 AM,34.0,32.0,92,30.17,5.0,Variable,5.8,-,N/A,,Clear,0,2012-11-20 12:53:00
7:53 AM,34.0,32.0,92,30.18,7.0,NW,4.6,-,N/A,,Clear,310,2012-11-20 13:53:00
8:53 AM,37.9,33.1,83,30.18,7.0,Calm,Calm,-,N/A,,Clear,0,2012-11-20 14:53:00
9:53 AM,41.0,34.0,76,30.18,7.0,Calm,Calm,-,N/A,,Clear,0,2012-11-20 15:53:00
10:53 AM,43.0,34.0,71,30.19,9.0,Calm,Calm,-,N/A,,Clear,0,2012-11-20 16:53:00
11:53 AM,48.0,34.0,58,30.17,9.0,West,4.6,-,N/A,,Partly Cloudy,260,2012-11-20 17:53:00
12:53 PM,51.1,33.1,50,30.15,7.0,WNW,3.5,-,N/A,,Partly Cloudy,290,2012-11-20 18:53:00
1:53 PM,52.0,32.0,47,30.14,9.0,Calm,Calm,-,N/A,,Partly Cloudy,0,2012-11-20 19:53:00
2:53 PM,53.1,30.9,43,30.13,10.0,Calm,Calm,-,N/A,,Partly Cloudy,0,2012-11-20 20:53:00
3:53 PM,50.0,34.0,54,30.13,9.0,SSE,6.9,-,N/A,,Scattered Clouds,160,2012-11-20 21:53:00
4:53 PM,48.9,30.9,50,30.13,9.0,South,3.5,-,N/A,,Scattered Clouds,180,2012-11-20 22:53:00
5:53 PM,46.0,30.9,56,30.13,10.0,Calm,Calm,-,N/A,,Scattered Clouds,0,2012-11-20 23:53:00
6:53 PM,43.0,30.9,62,30.12,9.0,SE,5.8,-,N/A,,Scattered Clouds,130,2012-11-21 00:53:00
7:53 PM,42.1,32.0,67,30.12,9.0,SSE,5.8,-,N/A,,Overcast,150,2012-11-21 01:53:00
8:53 PM,39.9,32.0,73,30.11,9.0,SSE,5.8,-,N/A,,Overcast,150,2012-11-21 02:53:00
9:53 PM,42.1,33.1,70,30.09,8.0,SE,6.9,-,N/A,,Mostly Cloudy,140,2012-11-21 03:53:00
10:53 PM,41.0,32.0,70,30.09,8.0,SSE,5.8,-,N/A,,Partly Cloudy,160,2012-11-21 04:53:00
11:53 PM,39.9,32.0,73,30.07,8.0,SE,4.6,-,N/A,,Partly Cloudy,130,2012-11-21 05:53:00